This is the latest recevied weather packets stored in our database for station/object KM5R. If no packets are shown the sender has not sent any weather packets the latest 10 day(s).
| Time | Temp. | Humidity | Pressure | Rain* | Wind** | Luminosity | Snow |
|---|---|---|---|---|---|---|---|
| 1777984765 | 20° C | 86% | 1008.3 hPa | 0 mm | - | 55 W/m² | - |
| 1777984462 | 20° C | 86% | 1008.2 hPa | 0 mm | - | 45 W/m² | - |
| 1777984157 | 20° C | 86% | 1008.1 hPa | 0 mm | - | 37 W/m² | - |
| 1777983855 | 19.44° C | 86% | 1007.9 hPa | 0 mm | - | 31 W/m² | - |
| 1777983552 | 19.44° C | 86% | 1008 hPa | 0 mm | - | 24 W/m² | - |
| 1777983249 | 19.44° C | 86% | 1008 hPa | 0 mm | - | 19 W/m² | - |
| 1777982641 | 19.44° C | 86% | 1007.8 hPa | 0 mm | - | 9 W/m² | - |
| 1777982340 | 19.44° C | 86% | 1007.6 hPa | 0 mm | - | 7 W/m² | - |
| 1777981735 | 19.44° C | 86% | 1007.8 hPa | 0 mm | - | 3 W/m² | - |
| 1777981127 | 19.44° C | 86% | 1007.4 hPa | 0 mm | - | 1 W/m² | - |
| 1777980824 | 19.44° C | 86% | 1007.8 hPa | 0 mm | - | 0 W/m² | - |
| 1777980520 | 20° C | 85% | 1007.5 hPa | 0 mm | - | 0 W/m² | - |
| 1777980218 | 20° C | 85% | 1007.5 hPa | 0 mm | - | 0 W/m² | - |
| 1777979913 | 20° C | 85% | 1007.5 hPa | 0 mm | - | 0 W/m² | - |
| 1777979609 | 20° C | 85% | 1007.5 hPa | 0 mm | - | 0 W/m² | - |
| 1777979305 | 20° C | 85% | 1007.6 hPa | 0 mm | - | 0 W/m² | - |
| 1777979003 | 20° C | 85% | 1007.6 hPa | 0 mm | - | 0 W/m² | - |
| 1777978699 | 20° C | 85% | 1007.5 hPa | 0 mm | - | 0 W/m² | - |
| 1777978395 | 20° C | 85% | 1007.4 hPa | 0 mm | - | 0 W/m² | - |
| 1777977183 | 20° C | 85% | 1007.7 hPa | 0 mm | - | 0 W/m² | - |
| 1777976578 | 20° C | 85% | 1007.8 hPa | 0 mm | - | 0 W/m² | - |
| 1777976277 | 20° C | 85% | 1007.7 hPa | 0 mm | - | 0 W/m² | - |
| 1777975972 | 20° C | 85% | 1007.7 hPa | 0 mm | - | 0 W/m² | - |
| 1777975669 | 20° C | 85% | 1007.8 hPa | 0 mm | - | 0 W/m² | - |
| 1777975061 | 20° C | 85% | 1007.7 hPa | 0 mm | - | 0 W/m² | - |
* Rain latest hour (hover to see other rain measurements)
** Current wind speed in m/s (hover to see current wind gust speed)